• In Spain
  • List of Countries
  • For 7 days
  • Water Temperature
  • Satellite Maps
  • Weather Map
  • Weather Widgets
  • user-avatar
    Login

    Hourly Weather Konstantyna

    Today, 19 July, Thursday

    Time Temperature Precipitation Wind Pressure Humidity
    00:00 +32°C° 0 mm 1 mps 710 mmHg 36%
    01:00 +31°C° 0 mm 1 mps 710 mmHg 39%
    02:00 +30°C° 0 mm 1 mps 709 mmHg 41%
    03:00 +29°C° 0 mm 1 mps 709 mmHg 44%
    04:00 +30°C° 0 mm 1 mps 710 mmHg 44%
    05:00 +30°C° 0 mm 1 mps 710 mmHg 44%
    06:00 +30°C° 0 mm 1 mps 710 mmHg 44%
    07:00 +32°C° 0 mm 2 mps 711 mmHg 40%
    08:00 +34°C° 0 mm 2 mps 711 mmHg 36%
    09:00 +35°C° 0 mm 3 mps 712 mmHg 33%
    10:00 +36°C° 0 mm 3 mps 712 mmHg 30%
    11:00 +37°C° 0 mm 3 mps 712 mmHg 28%
    12:00 +39°C° 0 mm 3 mps 712 mmHg 25%
    13:00 +40°C° 0 mm 4 mps 712 mmHg 25%
    14:00 +40°C° 0 mm 4 mps 712 mmHg 25%
    15:00 +40°C° 0 mm 4 mps 712 mmHg 24%
    16:00 +37°C° 0 mm 4 mps 712 mmHg 27%
    17:00 +36°C° 0 mm 3 mps 711 mmHg 29%
    18:00 +35°C° 0 mm 3 mps 711 mmHg 32%
    19:00 +34°C° 0 mm 2 mps 711 mmHg 35%
    20:00 +31°C° 0 mm 2 mps 711 mmHg 38%
    21:00 +30°C° 0 mm 1 mps 711 mmHg 40%
    22:00 +30°C° 0 mm 1 mps 711 mmHg 40%
    23:00 +29°C° 0 mm 1 mps 711 mmHg 40%

    Tomorrow, 20 July, Friday

    Time Temperature Precipitation Wind Pressure Humidity
    00:00 +27°C° 0 mm 0 mps 711 mmHg 40%
    01:00 +29°C° 0 mm 1 mps 711 mmHg 39%
    02:00 +29°C° 0 mm 1 mps 710 mmHg 37%
    03:00 +29°C° 0 mm 1 mps 710 mmHg 36%
    04:00 +30°C° 0 mm 1 mps 710 mmHg 34%
    05:00 +31°C° 0 mm 1 mps 710 mmHg 32%
    06:00 +31°C° 0 mm 1 mps 711 mmHg 30%
    07:00 +34°C° 0 mm 1 mps 711 mmHg 26%
    08:00 +36°C° 0 mm 1 mps 711 mmHg 21%
    09:00 +39°C° 0 mm 1 mps 712 mmHg 17%
    10:00 +40°C° 0 mm 2 mps 712 mmHg 15%
    11:00 +42°C° 0 mm 2 mps 712 mmHg 14%
    12:00 +44°C° 0 mm 3 mps 712 mmHg 13%
    13:00 +43°C° 0 mm 3 mps 711 mmHg 13%
    14:00 +43°C° 0 mm 4 mps 711 mmHg 14%
    15:00 +43°C° 0 mm 4 mps 711 mmHg 15%
    16:00 +41°C° 0.2 mm 4 mps 711 mmHg 18%
    17:00 +38°C° 0.2 mm 4 mps 710 mmHg 21%
    18:00 +37°C° 0.2 mm 4 mps 710 mmHg 24%
    19:00 +35°C° 0.5 mm 4 mps 710 mmHg 28%
    20:00 +34°C° 0.5 mm 4 mps 711 mmHg 32%
    21:00 +32°C° 0.5 mm 4 mps 711 mmHg 36%
    22:00 +31°C° 0.1 mm 3 mps 711 mmHg 35%
    23:00 +31°C° 0.1 mm 3 mps 710 mmHg 35%

    Day after tomorrow, 21 July, Saturday

    Time Temperature Precipitation Wind Pressure Humidity
    00:00 +31°C° 0.1 mm 3 mps 710 mmHg 34%
    01:00 +30°C° 0 mm 3 mps 709 mmHg 33%
    02:00 +30°C° 0 mm 3 mps 709 mmHg 32%
    03:00 +30°C° 0 mm 3 mps 709 mmHg 31%
    04:00 +31°C° 0 mm 2 mps 709 mmHg 30%
    05:00 +31°C° 0 mm 2 mps 709 mmHg 29%
    06:00 +32°C° 0 mm 2 mps 709 mmHg 28%
    07:00 +35°C° 0 mm 3 mps 710 mmHg 25%
    08:00 +37°C° 0 mm 4 mps 710 mmHg 21%
    09:00 +41°C° 0 mm 5 mps 711 mmHg 17%
    10:00 +42°C° 0 mm 6 mps 711 mmHg 15%
    11:00 +45°C° 0 mm 7 mps 711 mmHg 14%
    12:00 +46°C° 0 mm 8 mps 711 mmHg 12%
    13:00 +45°C° 0 mm 8 mps 711 mmHg 14%
    14:00 +45°C° 0 mm 7 mps 711 mmHg 15%
    15:00 +44°C° 0 mm 6 mps 711 mmHg 16%
    16:00 +42°C° 0 mm 5 mps 710 mmHg 21%
    17:00 +40°C° 0 mm 5 mps 710 mmHg 25%
    18:00 +37°C° 0 mm 4 mps 710 mmHg 29%
    19:00 +36°C° 0 mm 3 mps 710 mmHg 35%
    20:00 +34°C° 0 mm 2 mps 710 mmHg 41%
    21:00 +32°C° 0 mm 2 mps 711 mmHg 46%
    22:00 +31°C° 0 mm 2 mps 710 mmHg 49%
    23:00 +30°C° 0 mm 2 mps 710 mmHg 52%

    22 July, Sunday

    Time Temperature Precipitation Wind Pressure Humidity
    00:00 +29°C° 0 mm 1 mps 710 mmHg 54%
    01:00 +29°C° 0 mm 2 mps 710 mmHg 55%
    02:00 +29°C° 0 mm 2 mps 709 mmHg 56%
    03:00 +29°C° 0 mm 2 mps 709 mmHg 56%
    04:00 +28°C° 0 mm 2 mps 709 mmHg 57%
    05:00 +28°C° 0 mm 2 mps 709 mmHg 59%
    06:00 +28°C° 0 mm 2 mps 709 mmHg 60%
    07:00 +29°C° 0 mm 2 mps 709 mmHg 54%
    08:00 +31°C° 0 mm 2 mps 710 mmHg 48%
    09:00 +32°C° 0 mm 2 mps 710 mmHg 42%
    10:00 +34°C° 0 mm 3 mps 710 mmHg 38%
    11:00 +36°C° 0 mm 3 mps 710 mmHg 35%
    12:00 +37°C° 0 mm 4 mps 710 mmHg 31%
    13:00 +36°C° 0 mm 4 mps 709 mmHg 34%
    14:00 +35°C° 0 mm 4 mps 709 mmHg 37%
    15:00 +34°C° 0 mm 5 mps 709 mmHg 41%
    16:00 +33°C° 0 mm 4 mps 709 mmHg 46%
    17:00 +30°C° 0 mm 4 mps 709 mmHg 51%
    18:00 +28°C° 0 mm 3 mps 709 mmHg 56%
    19:00 +27°C° 0 mm 3 mps 710 mmHg 59%
    20:00 +26°C° 0 mm 2 mps 710 mmHg 62%
    21:00 +25°C° 0 mm 2 mps 710 mmHg 66%
    22:00 +25°C° 0 mm 2 mps 710 mmHg 68%
    23:00 +24°C° 0 mm 1 mps 710 mmHg 69%

    23 July, Monday

    Time Temperature Precipitation Wind Pressure Humidity
    00:00 +24°C° 0 mm 1 mps 710 mmHg 71%
    01:00 +23°C° 0 mm 1 mps 710 mmHg 73%
    02:00 +23°C° 0 mm 1 mps 709 mmHg 74%
    03:00 +22°C° 0 mm 1 mps 709 mmHg 75%
    04:00 +23°C° 0 mm 1 mps 709 mmHg 72%
    05:00 +23°C° 0 mm 1 mps 710 mmHg 68%
    06:00 +23°C° 0 mm 1 mps 710 mmHg 64%
    07:00 +25°C° 0 mm 1 mps 710 mmHg 55%
    08:00 +27°C° 0 mm 2 mps 710 mmHg 46%
    09:00 +29°C° 0 mm 2 mps 711 mmHg 36%
    10:00 +30°C° 0 mm 3 mps 711 mmHg 33%
    11:00 +31°C° 0 mm 3 mps 711 mmHg 30%
    12:00 +34°C° 0 mm 4 mps 711 mmHg 27%
    13:00 +34°C° 0 mm 4 mps 710 mmHg 27%
    14:00 +34°C° 0 mm 4 mps 710 mmHg 28%
    15:00 +34°C° 0 mm 4 mps 710 mmHg 28%
    16:00 +33°C° 0 mm 4 mps 710 mmHg 32%
    17:00 +32°C° 0 mm 4 mps 710 mmHg 35%
    18:00 +30°C° 0 mm 4 mps 710 mmHg 39%
    19:00 +28°C° 0 mm 3 mps 710 mmHg 43%
    20:00 +27°C° 0 mm 2 mps 710 mmHg 48%
    21:00 +26°C° 0 mm 1 mps 710 mmHg 52%
    22:00 +25°C° 0 mm 1 mps 710 mmHg 53%
    23:00 +25°C° 0 mm 1 mps 710 mmHg 53%

    24 July, Tuesday

    Time Temperature Precipitation Wind Pressure Humidity
    00:00 +25°C° 0 mm 1 mps 710 mmHg 54%
    01:00 +24°C° 0 mm 1 mps 709 mmHg 53%
    02:00 +24°C° 0 mm 1 mps 709 mmHg 53%
    03:00 +24°C° 0 mm 1 mps 709 mmHg 52%
    04:00 +24°C° 0 mm 1 mps 709 mmHg 48%
    05:00 +25°C° 0 mm 1 mps 709 mmHg 45%
    06:00 +26°C° 0 mm 1 mps 709 mmHg 41%
    07:00 +28°C° 0 mm 1 mps 710 mmHg 35%
    08:00 +30°C° 0 mm 1 mps 710 mmHg 29%
    09:00 +32°C° 0 mm 1 mps 711 mmHg 24%
    10:00 +34°C° 0 mm 2 mps 710 mmHg 22%
    11:00 +36°C° 0 mm 3 mps 710 mmHg 20%
    12:00 +37°C° 0 mm 3 mps 710 mmHg 18%
    13:00 +37°C° 0 mm 4 mps 710 mmHg 18%
    14:00 +37°C° 0 mm 4 mps 710 mmHg 18%
    15:00 +38°C° 0 mm 4 mps 710 mmHg 18%
    16:00 +37°C° 0 mm 4 mps 710 mmHg 21%
    17:00 +35°C° 0 mm 4 mps 709 mmHg 24%
    18:00 +34°C° 0 mm 4 mps 709 mmHg 27%
    19:00 +33°C° 0 mm 3 mps 709 mmHg 30%
    20:00 +31°C° 0 mm 2 mps 710 mmHg 34%
    21:00 +29°C° 0 mm 2 mps 710 mmHg 37%
    22:00 +29°C° 0 mm 2 mps 710 mmHg 37%
    23:00 +28°C° 0 mm 1 mps 709 mmHg 37%
    Show more